Location: Ethel Rock
(53.4667°N, 4.5667°W)
Time: 05:25:41
(UTC+00:00)

ADEOS - Pass Details

Date: 24 October 2020
Orbit: 793 x 793 km, 98.9° (Epoch: 25 November)

Event Time Altitude Azimuth Distance (km) Brightness Sun altitude
Rises 04:56:29 0° 17° (NNE) 3,310 7.1 -19.3°
Reaches altitude 10° 04:58:50 10° 19° (NNE) 2,376 6.3 -19.0°
Maximum altitude 05:04:05 72° 104° (ESE) 841 3.8 -18.2°
Drops below altitude 10° 05:09:17 10° 189° (S) 2,359 5.9 -17.4°
Sets 05:11:37 0° 192° (SSW) 3,284 6.6 -17.1°
